STARLINK-35020 (65340 NORAD) Tracking and Keplerian Element Data

This shows tracking and keplerian element data for the satellite.

Feedback or suggestion? Click here.




ElementValue
Catalog65340
NameSTARLINK-35020
Epoch Orbit1886
Epoch Day354.02656628
Epoch Year2025
RAAN216.5051
Inclination53.1586
Eccentricity0.0001757
Argument of Perigee96.2998
Mean Anonmoly263.8203
Mean Motion15.30247096
Decay Rate0.0003101
L11 65340U 25189T 25354.02656628 .00031010 00000+0 10532-2 0 9994
L22 65340 53.1586 216.5051 0001757 96.2998 263.8203 15.30247096 18865



Live tracking and technical data element details for STARLINK-35020 (NORAD 65340). STARLINK-35020 can be tracked NOW for your location showing map with azimuth and elevation plus other details from your city location.







IsCatalogInMostPopularTable: catalog: 65340, numindb: 8
Update: records affected: 1



GetName: 65340 STARLINK-35020

Hit Count: updated at: Tue, 21 Apr 2026 20:45:08 GMT